CES722 VHHH-ZSSS

Flight info

Callsign CES722
Flight time 1h 53m
Altitude 33100
Route LEKEN1Y LEKEN V601 DOTMI/K0924S1010 A470 LJG B221 SHZ G204 AND AND72A
Aircraft A346/H-SDE2E3FGHIJ3J4J5M1RWXYZ/LB1D1

Departure

Time 2026-05-07 16:20
Airport Hong Kong International Airport (VHHH)

Arrival

Time 2026-05-07 18:13
Airport Shanghai Hongqiao International Airport (ZSSS)
Time Latitude Longitude Altitude Speed Heading
2026-05-07 15:49 22.31418 113.92862 38 ft 0 kts 161°
2026-05-07 15:58 22.31423 113.92860 38 ft 2 kts 160°
2026-05-07 15:58 22.31442 113.92852 36 ft 3 kts 155°
2026-05-07 15:58 22.31460 113.92843 37 ft 3 kts 158°
2026-05-07 15:58 22.31477 113.92836 34 ft 3 kts 153°
2026-05-07 15:59 22.31488 113.92828 37 ft 3 kts 129°
2026-05-07 15:59 22.31494 113.92816 35 ft 3 kts 98°
2026-05-07 15:59 22.31493 113.92801 34 ft 3 kts 72°
2026-05-07 15:59 22.31489 113.92784 36 ft 3 kts 86°
2026-05-07 16:00 22.31491 113.92768 33 ft 3 kts 111°
2026-05-07 16:00 22.31499 113.92750 35 ft 3 kts 115°
2026-05-07 16:00 22.31507 113.92730 35 ft 3 kts 115°
2026-05-07 16:00 22.31511 113.92720 35 ft 0 kts 115°
2026-05-07 16:06 22.31507 113.92729 38 ft 3 kts 117°
2026-05-07 16:06 22.31493 113.92766 38 ft 9 kts 105°
2026-05-07 16:06 22.31506 113.92862 38 ft 17 kts 67°
2026-05-07 16:06 22.31552 113.92993 38 ft 20 kts 70°
2026-05-07 16:07 22.31603 113.93142 38 ft 22 kts 67°
2026-05-07 16:07 22.31671 113.93186 38 ft 9 kts 360°
2026-05-07 16:07 22.31745 113.93164 37 ft 12 kts 340°
2026-05-07 16:07 22.31834 113.93130 38 ft 15 kts 340°
2026-05-07 16:08 22.31941 113.93117 38 ft 17 kts 18°
2026-05-07 16:08 22.32034 113.93205 38 ft 19 kts 54°
2026-05-07 16:08 22.32135 113.93226 41 ft 15 kts 356°
2026-05-07 16:08 22.32246 113.93203 41 ft 18 kts 341°
2026-05-07 16:09 22.32342 113.93143 38 ft 11 kts 294°
2026-05-07 16:09 22.32353 113.93051 38 ft 14 kts 273°
2026-05-07 16:09 22.32358 113.92938 38 ft 17 kts 272°
2026-05-07 16:09 22.32333 113.92805 38 ft 19 kts 249°
2026-05-07 16:10 22.32281 113.92655 38 ft 22 kts 249°
2026-05-07 16:10 22.32247 113.92490 38 ft 17 kts 291°
2026-05-07 16:10 22.32327 113.92443 38 ft 15 kts 344°
2026-05-07 16:10 22.32417 113.92413 38 ft 17 kts 342°
2026-05-07 16:11 22.32543 113.92367 38 ft 20 kts 340°
2026-05-07 16:11 22.32685 113.92313 38 ft 23 kts 340°
2026-05-07 16:11 22.32843 113.92253 38 ft 25 kts 340°
2026-05-07 16:11 22.33015 113.92187 38 ft 27 kts 340°
2026-05-07 16:12 22.33125 113.92111 38 ft 12 kts 279°
2026-05-07 16:12 22.33104 113.92015 38 ft 14 kts 254°
2026-05-07 16:12 22.33068 113.91902 38 ft 18 kts 250°
2026-05-07 16:12 22.33022 113.91761 38 ft 21 kts 250°
2026-05-07 16:13 22.32970 113.91606 38 ft 23 kts 250°
2026-05-07 16:13 22.32915 113.91433 38 ft 25 kts 252°
2026-05-07 16:13 22.32856 113.91246 38 ft 27 kts 250°
2026-05-07 16:13 22.32791 113.91051 39 ft 29 kts 250°
2026-05-07 16:14 22.32724 113.90840 39 ft 30 kts 251°
2026-05-07 16:14 22.32654 113.90622 39 ft 31 kts 250°
2026-05-07 16:14 22.32580 113.90398 38 ft 32 kts 250°
2026-05-07 16:14 22.32508 113.90165 38 ft 33 kts 252°
2026-05-07 16:15 22.32429 113.89925 38 ft 32 kts 250°
2026-05-07 16:15 22.32379 113.89771 38 ft 20 kts 251°
2026-05-07 16:15 22.32329 113.89617 38 ft 23 kts 251°
2026-05-07 16:15 22.32275 113.89449 38 ft 25 kts 251°
2026-05-07 16:16 22.32215 113.89260 38 ft 27 kts 251°
2026-05-07 16:16 22.32153 113.89061 38 ft 29 kts 251°
2026-05-07 16:16 22.32083 113.88855 38 ft 30 kts 250°
2026-05-07 16:16 22.32016 113.88638 38 ft 31 kts 251°
2026-05-07 16:17 22.31943 113.88412 38 ft 32 kts 251°
2026-05-07 16:17 22.31884 113.88221 38 ft 15 kts 259°
2026-05-07 16:17 22.31939 113.88145 38 ft 15 kts 337°
2026-05-07 16:17 22.32048 113.88106 37 ft 19 kts 342°
2026-05-07 16:18 22.32131 113.88153 37 ft 16 kts 66°
2026-05-07 16:18 22.32161 113.88238 37 ft 0 kts 71°
2026-05-07 16:18 22.32162 113.88241 37 ft 1 kts 71°
2026-05-07 16:18 22.32168 113.88263 37 ft 4 kts 71°
2026-05-07 16:19 22.32185 113.88314 37 ft 19 kts 71°
2026-05-07 16:19 22.32314 113.88715 37 ft 92 kts 71°
2026-05-07 16:19 22.32600 113.89614 38 ft 154 kts 70°
2026-05-07 16:19 22.33005 113.90845 157 ft 192 kts 72°
2026-05-07 16:20 22.33433 113.92290 663 ft 204 kts 76°
2026-05-07 16:20 22.33779 113.93817 1252 ft 214 kts 80°
2026-05-07 16:20 22.33999 113.95444 1941 ft 224 kts 88°
2026-05-07 16:20 22.34081 113.97184 2638 ft 239 kts 90°
2026-05-07 16:21 22.34117 113.98992 3493 ft 229 kts 89°
2026-05-07 16:21 22.34195 114.00667 4123 ft 227 kts 87°
2026-05-07 16:21 22.34299 114.02436 4605 ft 250 kts 86°
2026-05-07 16:21 22.34276 114.04391 5058 ft 271 kts 100°
2026-05-07 16:22 22.33764 114.06384 5501 ft 278 kts 113°
2026-05-07 16:22 22.33016 114.08338 5948 ft 282 kts 115°
2026-05-07 16:22 22.32238 114.10279 6401 ft 284 kts 115°
2026-05-07 16:22 22.31450 114.12253 6815 ft 287 kts 115°
2026-05-07 16:23 22.30661 114.14245 7233 ft 289 kts 115°
2026-05-07 16:23 22.29870 114.16258 7668 ft 292 kts 115°
2026-05-07 16:23 22.29076 114.18291 8103 ft 295 kts 115°
2026-05-07 16:23 22.28276 114.20344 8543 ft 298 kts 115°
2026-05-07 16:24 22.27465 114.22422 9040 ft 305 kts 114°
2026-05-07 16:24 22.26640 114.24543 9932 ft 306 kts 115°
2026-05-07 16:24 22.25822 114.26646 10595 ft 313 kts 115°
2026-05-07 16:24 22.24953 114.28867 11016 ft 329 kts 115°
2026-05-07 16:25 22.23972 114.31185 11362 ft 347 kts 117°
2026-05-07 16:25 22.22921 114.33603 11715 ft 365 kts 117°
2026-05-07 16:25 22.21808 114.36151 12018 ft 383 kts 117°
2026-05-07 16:25 22.20645 114.38817 12342 ft 400 kts 117°
2026-05-07 16:26 22.19449 114.41565 12916 ft 408 kts 117°
2026-05-07 16:26 22.18253 114.44312 13655 ft 411 kts 117°
2026-05-07 16:26 22.17029 114.47126 14304 ft 415 kts 117°
2026-05-07 16:26 22.15794 114.49961 14918 ft 419 kts 117°
2026-05-07 16:27 22.14544 114.52829 15513 ft 424 kts 117°
2026-05-07 16:27 22.13279 114.55729 16111 ft 429 kts 117°
2026-05-07 16:27 22.12019 114.58617 16695 ft 433 kts 117°
2026-05-07 16:27 22.10716 114.61602 17278 ft 438 kts 117°
2026-05-07 16:28 22.09412 114.64587 17840 ft 442 kts 116°
2026-05-07 16:28 22.08091 114.67602 18386 ft 446 kts 116°
2026-05-07 16:28 22.06759 114.70643 18877 ft 450 kts 116°
2026-05-07 16:28 22.05417 114.73709 19380 ft 453 kts 116°
2026-05-07 16:29 22.04064 114.76798 19874 ft 457 kts 116°
2026-05-07 16:29 22.02702 114.79907 20363 ft 460 kts 116°
2026-05-07 16:29 22.01328 114.83041 20850 ft 463 kts 116°
2026-05-07 16:29 21.99979 114.86206 21314 ft 467 kts 112°
2026-05-07 16:30 21.99266 114.89594 21682 ft 473 kts 93°
2026-05-07 16:30 21.99560 114.93117 22162 ft 474 kts 75°
2026-05-07 16:30 22.00815 114.96384 22623 ft 473 kts 58°
2026-05-07 16:30 22.02596 114.99372 23149 ft 475 kts 55°
2026-05-07 16:31 22.04423 115.02361 23551 ft 479 kts 55°
2026-05-07 16:31 22.06261 115.05381 23889 ft 483 kts 55°
2026-05-07 16:31 22.08101 115.08432 24249 ft 486 kts 55°
2026-05-07 16:31 22.09915 115.11460 24615 ft 488 kts 56°
2026-05-07 16:32 22.11758 115.14551 24986 ft 491 kts 56°
2026-05-07 16:32 22.13608 115.17666 25361 ft 494 kts 56°
2026-05-07 16:32 22.15468 115.20801 25729 ft 497 kts 56°
2026-05-07 16:32 22.17336 115.23953 26104 ft 499 kts 56°
2026-05-07 16:33 22.19216 115.27130 26462 ft 502 kts 56°
2026-05-07 16:33 22.21100 115.30315 26834 ft 505 kts 56°
2026-05-07 16:33 22.22971 115.33480 27188 ft 508 kts 56°
2026-05-07 16:33 22.24883 115.36715 27540 ft 511 kts 56°
2026-05-07 16:34 22.26800 115.39961 27881 ft 514 kts 56°
2026-05-07 16:34 22.28727 115.43230 28244 ft 517 kts 56°
2026-05-07 16:34 22.30663 115.46514 28688 ft 518 kts 56°
2026-05-07 16:34 22.32593 115.49792 29246 ft 516 kts 56°
2026-05-07 16:35 22.34519 115.53063 29814 ft 514 kts 56°
2026-05-07 16:35 22.36438 115.56325 30309 ft 513 kts 56°
2026-05-07 16:35 22.38353 115.59584 30776 ft 512 kts 56°
2026-05-07 16:35 22.40261 115.62831 31284 ft 510 kts 55°
2026-05-07 16:36 22.42136 115.66024 31770 ft 509 kts 55°
2026-05-07 16:36 22.44032 115.69255 32208 ft 509 kts 55°
2026-05-07 16:36 22.45931 115.72490 32607 ft 510 kts 55°
2026-05-07 16:36 22.47832 115.75733 32977 ft 511 kts 55°
2026-05-07 16:37 22.49742 115.78989 33062 ft 512 kts 55°
2026-05-07 16:37 22.53558 115.85498 33071 ft 512 kts 55°
2026-05-07 16:38 22.57351 115.91984 33083 ft 512 kts 55°
2026-05-07 16:38 22.61165 115.98517 33078 ft 512 kts 55°
2026-05-07 16:39 22.64976 116.05049 33075 ft 512 kts 55°
2026-05-07 16:39 22.68997 116.11409 33075 ft 510 kts 50°
2026-05-07 16:40 22.73564 116.17217 33088 ft 508 kts 43°
2026-05-07 16:40 22.78693 116.22462 33080 ft 505 kts 37°
2026-05-07 16:41 22.84220 116.27161 33078 ft 504 kts 34°
2026-05-07 16:41 22.89809 116.31753 33076 ft 504 kts 34°
2026-05-07 16:42 22.95347 116.36334 33079 ft 504 kts 34°
2026-05-07 16:42 23.00925 116.40944 33074 ft 504 kts 34°
2026-05-07 16:43 23.06515 116.45562 33076 ft 504 kts 34°
2026-05-07 16:43 23.12094 116.50175 33075 ft 504 kts 34°
2026-05-07 16:44 23.17631 116.54759 33077 ft 504 kts 34°
2026-05-07 16:44 23.23209 116.59385 33089 ft 503 kts 34°
2026-05-07 16:45 23.28790 116.64013 33073 ft 504 kts 34°
2026-05-07 16:45 23.34367 116.68645 33076 ft 504 kts 34°
2026-05-07 16:46 23.39910 116.73255 33076 ft 504 kts 34°
2026-05-07 16:46 23.45270 116.78209 33078 ft 507 kts 40°
2026-05-07 16:47 23.50243 116.83694 33085 ft 509 kts 43°
2026-05-07 16:47 23.55110 116.89243 33078 ft 509 kts 43°
2026-05-07 16:48 23.60011 116.94826 33077 ft 509 kts 43°
2026-05-07 16:48 23.64916 117.00407 33075 ft 509 kts 43°
2026-05-07 16:49 23.69822 117.05991 33079 ft 509 kts 43°
2026-05-07 16:49 23.74696 117.11545 33083 ft 510 kts 43°
2026-05-07 16:50 23.79833 117.16884 33078 ft 509 kts 39°
2026-05-07 16:50 23.85111 117.22030 33079 ft 508 kts 38°
2026-05-07 16:51 23.90392 117.27171 33076 ft 508 kts 38°
2026-05-07 16:51 23.95630 117.32287 33091 ft 508 kts 38°
2026-05-07 16:52 24.00911 117.37456 33074 ft 510 kts 38°
2026-05-07 16:52 24.06196 117.42637 33075 ft 510 kts 38°
2026-05-07 16:53 24.11485 117.47826 33066 ft 510 kts 39°
2026-05-07 16:53 24.16482 117.53288 33070 ft 512 kts 44°
2026-05-07 16:54 24.21295 117.59050 33072 ft 513 kts 44°
2026-05-07 16:54 24.26112 117.64853 33070 ft 514 kts 44°
2026-05-07 16:55 24.30926 117.70649 33066 ft 514 kts 44°
2026-05-07 16:55 24.35712 117.76406 33063 ft 513 kts 44°
2026-05-07 16:56 24.40528 117.82208 33070 ft 514 kts 44°
2026-05-07 16:56 24.47762 117.90932 33073 ft 516 kts 44°
2026-05-07 16:57 24.52564 117.96733 33071 ft 516 kts 45°
2026-05-07 16:57 24.57395 118.02557 33067 ft 515 kts 44°
2026-05-07 16:58 24.62381 118.08221 33066 ft 515 kts 42°
2026-05-07 16:58 24.67391 118.13859 33074 ft 516 kts 43°
2026-05-07 16:59 24.72390 118.19541 33070 ft 516 kts 43°
2026-05-07 16:59 24.77348 118.25197 33066 ft 516 kts 43°
2026-05-07 17:00 24.82336 118.30892 33060 ft 516 kts 43°
2026-05-07 17:00 24.87323 118.36592 33071 ft 516 kts 43°
2026-05-07 17:01 24.92280 118.42264 33063 ft 517 kts 43°
2026-05-07 17:01 24.97288 118.48000 33059 ft 517 kts 43°
2026-05-07 17:02 25.02281 118.53726 33059 ft 517 kts 43°
2026-05-07 17:02 25.07270 118.59455 33060 ft 518 kts 43°
2026-05-07 17:03 25.12185 118.65202 33066 ft 519 kts 44°
2026-05-07 17:03 25.17060 118.71107 33058 ft 520 kts 45°
2026-05-07 17:04 25.21935 118.77022 33057 ft 520 kts 44°
2026-05-07 17:04 25.26822 118.82937 33058 ft 520 kts 44°
2026-05-07 17:05 25.31676 118.88810 33059 ft 520 kts 44°
2026-05-07 17:05 25.36585 118.94696 33058 ft 520 kts 43°
2026-05-07 17:06 25.41576 119.00495 33058 ft 520 kts 43°
2026-05-07 17:06 25.46565 119.06303 33063 ft 520 kts 43°
2026-05-07 17:07 25.51509 119.12082 33062 ft 520 kts 44°
2026-05-07 17:07 25.56483 119.17913 33064 ft 521 kts 44°
2026-05-07 17:08 25.61465 119.23760 33064 ft 521 kts 44°
2026-05-07 17:08 25.66449 119.29603 33057 ft 521 kts 43°
2026-05-07 17:09 25.71831 119.34852 33062 ft 516 kts 33°
2026-05-07 17:09 25.77885 119.39062 33061 ft 512 kts 23°
2026-05-07 17:10 25.84429 119.42109 33065 ft 508 kts 14°
2026-05-07 17:10 25.91170 119.44403 33065 ft 506 kts 12°
2026-05-07 17:11 25.97877 119.46632 33064 ft 506 kts 12°
2026-05-07 17:11 26.04616 119.48908 33070 ft 507 kts 12°
2026-05-07 17:12 26.11367 119.51203 33066 ft 507 kts 12°
2026-05-07 17:12 26.18077 119.53679 33064 ft 510 kts 17°
2026-05-07 17:13 26.24541 119.56889 33072 ft 513 kts 23°
2026-05-07 17:13 26.30734 119.60884 33072 ft 515 kts 28°
2026-05-07 17:14 26.36798 119.65149 33068 ft 515 kts 28°
2026-05-07 17:14 26.42863 119.69423 33063 ft 515 kts 28°
2026-05-07 17:15 26.48884 119.73658 33073 ft 514 kts 28°
2026-05-07 17:15 26.54929 119.77908 33071 ft 511 kts 28°
2026-05-07 17:16 26.60959 119.82143 33065 ft 512 kts 28°
2026-05-07 17:16 26.66975 119.86379 33061 ft 510 kts 28°
2026-05-07 17:17 26.72940 119.90587 33064 ft 510 kts 27°
2026-05-07 17:17 26.78956 119.94829 33062 ft 510 kts 27°
2026-05-07 17:18 26.84967 119.99073 33065 ft 510 kts 27°
2026-05-07 17:18 26.90968 120.03317 33054 ft 511 kts 27°
2026-05-07 17:19 26.96982 120.07578 33067 ft 511 kts 27°
2026-05-07 17:19 27.02966 120.11818 33060 ft 512 kts 27°
2026-05-07 17:20 27.08999 120.16100 33059 ft 512 kts 27°
2026-05-07 17:20 27.15018 120.20375 33073 ft 512 kts 27°
2026-05-07 17:21 27.21008 120.24601 33054 ft 512 kts 27°
2026-05-07 17:21 27.27044 120.28861 33061 ft 512 kts 27°
2026-05-07 17:22 27.33083 120.33129 33057 ft 512 kts 27°
2026-05-07 17:22 27.39114 120.37403 33060 ft 512 kts 27°
2026-05-07 17:23 27.45087 120.41655 33048 ft 511 kts 27°
2026-05-07 17:23 27.51093 120.45931 33046 ft 510 kts 27°
2026-05-07 17:24 27.57102 120.50210 33044 ft 510 kts 27°
2026-05-07 17:24 27.63101 120.54490 33063 ft 510 kts 27°
2026-05-07 17:25 27.69152 120.58523 33052 ft 506 kts 21°
2026-05-07 17:25 27.75599 120.61580 33043 ft 499 kts 13°
2026-05-07 17:26 27.82283 120.63516 33061 ft 493 kts
2026-05-07 17:26 27.89051 120.64428 33053 ft 489 kts 359°
2026-05-07 17:27 27.95774 120.65055 33042 ft 488 kts 359°
2026-05-07 17:27 28.02535 120.65688 33044 ft 488 kts 359°
2026-05-07 17:28 28.09302 120.66339 33057 ft 488 kts 359°
2026-05-07 17:28 28.16053 120.66993 33042 ft 487 kts 359°
2026-05-07 17:29 28.22766 120.67641 33039 ft 487 kts 359°
2026-05-07 17:29 28.29520 120.68297 33038 ft 487 kts 359°
2026-05-07 17:30 28.36282 120.68958 33037 ft 487 kts 359°
2026-05-07 17:30 28.39656 120.69286 32758 ft 488 kts 359°
2026-05-07 17:30 28.43035 120.69614 32243 ft 485 kts 359°
2026-05-07 17:31 28.46372 120.69939 31749 ft 481 kts 359°
2026-05-07 17:31 28.49672 120.70259 31267 ft 481 kts 359°
2026-05-07 17:31 28.53015 120.70583 30803 ft 483 kts 359°
2026-05-07 17:31 28.56379 120.70909 30332 ft 485 kts 359°
2026-05-07 17:32 28.59744 120.71238 29877 ft 486 kts 360°
2026-05-07 17:32 28.63123 120.71570 29335 ft 487 kts 360°
2026-05-07 17:32 28.66506 120.71902 28795 ft 489 kts 360°
2026-05-07 17:32 28.68752 120.72123 28457 ft 490 kts 360°
2026-05-07 17:33 28.73262 120.72596 27769 ft 490 kts
2026-05-07 17:33 28.76643 120.72974 27268 ft 487 kts
2026-05-07 17:33 28.80010 120.73350 26779 ft 485 kts
2026-05-07 17:33 28.83364 120.73724 26314 ft 482 kts
2026-05-07 17:34 28.86689 120.74090 25836 ft 479 kts 360°
2026-05-07 17:34 28.90003 120.74437 25364 ft 477 kts 360°
2026-05-07 17:34 28.93310 120.74775 24949 ft 476 kts 360°
2026-05-07 17:34 28.96604 120.75111 24532 ft 474 kts 360°
2026-05-07 17:35 28.99885 120.75447 24129 ft 473 kts 360°
2026-05-07 17:35 29.03106 120.75779 23739 ft 472 kts 360°
2026-05-07 17:35 29.06373 120.76113 23324 ft 470 kts 360°
2026-05-07 17:35 29.09628 120.76447 22857 ft 467 kts 360°
2026-05-07 17:36 29.12858 120.76778 22396 ft 463 kts
2026-05-07 17:36 29.16057 120.77107 21944 ft 460 kts
2026-05-07 17:36 29.19237 120.77436 21482 ft 457 kts
2026-05-07 17:36 29.22346 120.77757 21051 ft 454 kts
2026-05-07 17:37 29.25479 120.78080 20610 ft 450 kts
2026-05-07 17:37 29.28595 120.78402 20174 ft 447 kts
2026-05-07 17:37 29.31679 120.78721 19769 ft 444 kts
2026-05-07 17:37 29.34754 120.79038 19342 ft 441 kts
2026-05-07 17:38 29.37799 120.79355 19003 ft 439 kts
2026-05-07 17:38 29.40843 120.79671 18920 ft 439 kts
2026-05-07 17:38 29.43884 120.79987 18923 ft 440 kts
2026-05-07 17:38 29.46933 120.80305 18921 ft 440 kts
2026-05-07 17:39 29.49955 120.80619 18917 ft 440 kts
2026-05-07 17:39 29.53003 120.80936 18915 ft 440 kts
2026-05-07 17:39 29.56050 120.81275 18923 ft 441 kts
2026-05-07 17:39 29.59074 120.81947 18919 ft 444 kts 11°
2026-05-07 17:40 29.62020 120.83050 18917 ft 447 kts 18°
2026-05-07 17:40 29.64846 120.84561 18918 ft 449 kts 24°
2026-05-07 17:40 29.67613 120.86244 18919 ft 449 kts 25°
2026-05-07 17:40 29.70326 120.87935 18910 ft 449 kts 25°
2026-05-07 17:41 29.73072 120.89646 18912 ft 449 kts 25°
2026-05-07 17:41 29.75823 120.91353 18909 ft 449 kts 25°
2026-05-07 17:41 29.78578 120.93058 18917 ft 449 kts 25°
2026-05-07 17:41 29.81329 120.94750 18911 ft 447 kts 25°
2026-05-07 17:42 29.84071 120.96434 18903 ft 447 kts 25°
2026-05-07 17:42 29.86818 120.98122 18906 ft 447 kts 25°
2026-05-07 17:42 29.89563 120.99810 18906 ft 447 kts 25°
2026-05-07 17:42 29.92309 121.01500 18902 ft 447 kts 25°
2026-05-07 17:43 29.95058 121.03195 18903 ft 447 kts 25°
2026-05-07 17:43 29.97761 121.04862 18905 ft 447 kts 25°
2026-05-07 17:43 30.00500 121.06556 18907 ft 447 kts 25°
2026-05-07 17:43 30.03247 121.08257 18902 ft 447 kts 25°
2026-05-07 17:44 30.05988 121.09954 18899 ft 447 kts 25°
2026-05-07 17:44 30.08732 121.11653 18898 ft 447 kts 25°
2026-05-07 17:44 30.11476 121.13354 18883 ft 448 kts 25°
2026-05-07 17:44 30.14222 121.15056 18489 ft 446 kts 25°
2026-05-07 17:45 30.16936 121.16740 18021 ft 440 kts 25°
2026-05-07 17:45 30.19625 121.18410 17507 ft 436 kts 25°
2026-05-07 17:45 30.22249 121.20042 17003 ft 432 kts 25°
2026-05-07 17:45 30.24777 121.21906 16481 ft 432 kts 36°
2026-05-07 17:46 30.26911 121.24347 15999 ft 432 kts 49°
2026-05-07 17:46 30.28649 121.27193 15518 ft 431 kts 55°
2026-05-07 17:46 30.30266 121.30105 15038 ft 428 kts 56°
2026-05-07 17:46 30.31858 121.32995 14463 ft 420 kts 56°
2026-05-07 17:47 30.33408 121.35778 13973 ft 401 kts 55°
2026-05-07 17:47 30.34900 121.38426 13474 ft 383 kts 55°
2026-05-07 17:47 30.36314 121.40923 12981 ft 368 kts 55°
2026-05-07 17:47 30.37574 121.43435 12434 ft 356 kts 69°
2026-05-07 17:48 30.37907 121.46216 11924 ft 344 kts 98°
2026-05-07 17:48 30.37134 121.48745 11422 ft 327 kts 129°
2026-05-07 17:48 30.35508 121.50429 10935 ft 307 kts 160°
2026-05-07 17:48 30.33514 121.50962 10453 ft 288 kts 185°
2026-05-07 17:49 30.31597 121.50589 9984 ft 274 kts 205°
2026-05-07 17:49 30.29982 121.49522 9487 ft 263 kts 224°
2026-05-07 17:49 30.28814 121.47944 8970 ft 255 kts 239°
2026-05-07 17:49 30.27891 121.46242 8468 ft 251 kts 240°
2026-05-07 17:50 30.26968 121.44538 7959 ft 248 kts 239°
2026-05-07 17:50 30.26038 121.42859 7476 ft 246 kts 239°
2026-05-07 17:50 30.25102 121.41198 6987 ft 246 kts 239°
2026-05-07 17:50 30.24164 121.39526 6512 ft 245 kts 243°
2026-05-07 17:51 30.23594 121.37699 6010 ft 241 kts 264°
2026-05-07 17:51 30.23633 121.35778 5498 ft 239 kts 283°
2026-05-07 17:51 30.24224 121.34021 5015 ft 238 kts 302°
2026-05-07 17:51 30.25307 121.32585 4778 ft 239 kts 321°
2026-05-07 17:52 30.26763 121.31646 4762 ft 243 kts 341°
2026-05-07 17:52 30.28436 121.31337 4763 ft 247 kts
2026-05-07 17:52 30.30122 121.31735 4763 ft 251 kts 21°
2026-05-07 17:52 30.31606 121.32831 4753 ft 254 kts 43°
2026-05-07 17:53 30.32706 121.34446 4777 ft 256 kts 54°
2026-05-07 17:53 30.33678 121.36180 4761 ft 257 kts 55°
2026-05-07 17:53 30.34630 121.37909 4761 ft 257 kts 55°
2026-05-07 17:53 30.35601 121.39651 4764 ft 258 kts 54°
2026-05-07 17:54 30.36582 121.41395 4760 ft 258 kts 54°
2026-05-07 17:54 30.37640 121.43056 4765 ft 255 kts 41°
2026-05-07 17:54 30.39029 121.44299 4764 ft 251 kts 25°
2026-05-07 17:54 30.40642 121.45030 4763 ft 247 kts
2026-05-07 17:55 30.42339 121.45229 4767 ft 244 kts 354°
2026-05-07 17:55 30.43998 121.44907 4761 ft 241 kts 339°
2026-05-07 17:55 30.45512 121.44105 4763 ft 239 kts 325°
2026-05-07 17:55 30.46800 121.42932 4767 ft 238 kts 317°
2026-05-07 17:56 30.48097 121.41725 4800 ft 240 kts 325°
2026-05-07 17:56 30.49593 121.40863 4771 ft 241 kts 340°
2026-05-07 17:56 30.51240 121.40464 4773 ft 243 kts 350°
2026-05-07 17:56 30.52925 121.40250 4763 ft 243 kts 352°
2026-05-07 17:57 30.54611 121.40069 4764 ft 244 kts 352°
2026-05-07 17:57 30.55730 121.39953 4763 ft 244 kts 352°
2026-05-07 17:57 30.57966 121.39723 4762 ft 244 kts 352°
2026-05-07 17:57 30.59655 121.39548 4765 ft 244 kts 352°
2026-05-07 17:58 30.61347 121.39373 4762 ft 244 kts 352°
2026-05-07 17:58 30.63011 121.39199 4663 ft 238 kts 353°
2026-05-07 17:58 30.64636 121.38789 4132 ft 241 kts 339°
2026-05-07 17:58 30.66201 121.38091 3650 ft 239 kts 336°
2026-05-07 17:59 30.67731 121.37360 3179 ft 236 kts 336°
2026-05-07 17:59 30.69269 121.36683 2704 ft 236 kts 343°
2026-05-07 17:59 30.70848 121.36309 2249 ft 235 kts 352°
2026-05-07 17:59 30.72473 121.36159 1784 ft 232 kts 355°
2026-05-07 18:00 30.74035 121.36080 1453 ft 214 kts 357°
2026-05-07 18:00 30.75419 121.36022 1388 ft 187 kts 356°
2026-05-07 18:00 30.76700 121.35966 1411 ft 183 kts 356°
2026-05-07 18:00 30.77971 121.35906 1425 ft 182 kts 356°
2026-05-07 18:01 30.79236 121.35843 1429 ft 182 kts 356°
2026-05-07 18:01 30.80505 121.35778 1421 ft 182 kts 355°
2026-05-07 18:01 30.81756 121.35710 1440 ft 182 kts 356°
2026-05-07 18:01 30.83024 121.35642 1418 ft 182 kts 355°
2026-05-07 18:02 30.85559 121.35499 1416 ft 182 kts 356°
2026-05-07 18:02 30.86828 121.35429 1410 ft 182 kts 356°
2026-05-07 18:02 30.88091 121.35358 1424 ft 181 kts 356°
2026-05-07 18:03 30.89351 121.35287 1420 ft 181 kts 356°
2026-05-07 18:03 30.90607 121.35219 1426 ft 180 kts 355°
2026-05-07 18:03 30.91838 121.35150 1446 ft 179 kts 356°
2026-05-07 18:03 30.93083 121.35082 1390 ft 176 kts 356°
2026-05-07 18:04 30.94254 121.35021 1420 ft 163 kts 355°
2026-05-07 18:04 30.95388 121.34959 1712 ft 163 kts 355°
2026-05-07 18:04 30.96523 121.34896 1750 ft 163 kts 356°
2026-05-07 18:04 30.97655 121.34834 1766 ft 162 kts 355°
2026-05-07 18:05 30.98778 121.34772 1739 ft 162 kts 355°
2026-05-07 18:05 30.99909 121.34709 1759 ft 163 kts 355°
2026-05-07 18:05 31.01037 121.34647 1759 ft 162 kts 355°
2026-05-07 18:05 31.02148 121.34587 1752 ft 162 kts 355°
2026-05-07 18:06 31.03277 121.34524 1756 ft 163 kts 355°
2026-05-07 18:06 31.04407 121.34463 1753 ft 163 kts 355°
2026-05-07 18:06 31.05547 121.34401 1755 ft 163 kts 355°
2026-05-07 18:06 31.06685 121.34339 1770 ft 164 kts 356°
2026-05-07 18:07 31.07828 121.34277 1756 ft 164 kts 356°
2026-05-07 18:07 31.08964 121.34217 1728 ft 163 kts 355°
2026-05-07 18:07 31.10081 121.34155 1581 ft 163 kts 356°
2026-05-07 18:07 31.11179 121.34096 1349 ft 151 kts 355°
2026-05-07 18:08 31.12220 121.34039 1172 ft 146 kts 356°
2026-05-07 18:08 31.13219 121.33986 989 ft 142 kts 355°
2026-05-07 18:08 31.14193 121.33933 833 ft 140 kts 355°
2026-05-07 18:08 31.15166 121.33877 641 ft 141 kts 358°
2026-05-07 18:09 31.16150 121.33824 470 ft 142 kts 359°
2026-05-07 18:09 31.17121 121.33772 290 ft 137 kts 359°
2026-05-07 18:09 31.18069 121.33722 111 ft 138 kts 358°
2026-05-07 18:09 31.19038 121.33665 32 ft 131 kts 355°
2026-05-07 18:10 31.19882 121.33627 27 ft 114 kts 358°
2026-05-07 18:10 31.15413 121.33863 611 ft 142 kts 358°
2026-05-07 18:10 31.16498 121.33855 461 ft 155 kts 357°
2026-05-07 18:11 31.17540 121.33750 210 ft 144 kts 356°
2026-05-07 18:11 31.18195 121.33713 101 ft 142 kts 358°
2026-05-07 18:11 31.19449 121.33637 29 ft 119 kts
2026-05-07 18:11 31.16459 121.33846 645 ft 161 kts
2026-05-07 18:12 31.16431 121.33832 518 ft 165 kts 357°
2026-05-07 18:12 31.17543 121.33751 250 ft 155 kts 360°
2026-05-07 18:12 31.18565 121.33694 50 ft 142 kts 356°
2026-05-07 18:12 31.19443 121.33647 29 ft 99 kts 358°
2026-05-07 18:13 31.19972 121.33620 27 ft 55 kts 357°
2026-05-07 18:13 31.20270 121.33604 30 ft 34 kts 357°
2026-05-07 18:13 31.20418 121.33594 27 ft 21 kts 355°
2026-05-07 18:13 31.20566 121.33562 27 ft 22 kts 343°
2026-05-07 18:14 31.20700 121.33481 27 ft 10 kts 325°
2026-05-07 18:14 31.20708 121.33471 27 ft 4 kts 308°
2026-05-07 18:14 31.20713 121.33421 27 ft 6 kts 238°
2026-05-07 18:14 31.20662 121.33396 27 ft 9 kts 180°
2026-05-07 18:15 31.20584 121.33394 27 ft 12 kts 182°
2026-05-07 18:15 31.20522 121.33335 28 ft 13 kts 258°
2026-05-07 18:15 31.20515 121.33225 28 ft 15 kts 268°
2026-05-07 18:15 31.20511 121.33105 28 ft 13 kts 268°
2026-05-07 18:16 31.20507 121.32989 28 ft 15 kts 264°
2026-05-07 18:16 31.20434 121.32936 28 ft 14 kts 174°
2026-05-07 18:16 31.20330 121.32946 28 ft 17 kts 175°
2026-05-07 18:16 31.20206 121.32952 28 ft 19 kts 178°
2026-05-07 18:17 31.20136 121.32848 28 ft 20 kts 266°
2026-05-07 18:17 31.20110 121.32730 27 ft 5 kts 203°
2026-05-07 18:17 31.20095 121.32728 27 ft 4 kts 188°
2026-05-07 18:17 31.20058 121.32724 27 ft 7 kts 181°
2026-05-07 18:18 31.20004 121.32726 27 ft 6 kts 178°
2026-05-07 18:18 31.19978 121.32727 27 ft 0 kts 178°